• In Romania
  • List of Countries
  • For 7 days
  • Water Temperature
  • Satellite Maps
  • Weather Map
  • Weather Widgets
  • user-avatar
    Login

    Hourly Weather Canberra

    Today, 26 April, Wednesday

    Time Temperature Precipitation Wind Pressure Humidity
    00:00 +12°C° 0 mm 2 mps 703 mmHg 94%
    01:00 +11°C° 0 mm 3 mps 702 mmHg 94%
    02:00 +11°C° 0 mm 3 mps 702 mmHg 94%
    03:00 +11°C° 0 mm 3 mps 702 mmHg 94%
    04:00 +11°C° 0 mm 3 mps 702 mmHg 93%
    05:00 +11°C° 0.1 mm 3 mps 702 mmHg 93%
    06:00 +10°C° 0.1 mm 3 mps 702 mmHg 93%
    07:00 +10°C° 0.1 mm 3 mps 702 mmHg 92%
    08:00 +11°C° 0.1 mm 3 mps 702 mmHg 85%
    09:00 +12°C° 0.1 mm 3 mps 702 mmHg 79%
    10:00 +13°C° 0.1 mm 4 mps 702 mmHg 72%
    11:00 +13°C° 0.3 mm 4 mps 702 mmHg 72%
    12:00 +13°C° 0.3 mm 4 mps 702 mmHg 72%
    13:00 +13°C° 0.3 mm 4 mps 702 mmHg 72%
    14:00 +12°C° 0.2 mm 4 mps 702 mmHg 73%
    15:00 +11°C° 0.2 mm 4 mps 702 mmHg 75%
    16:00 +11°C° 0.2 mm 3 mps 702 mmHg 77%
    17:00 +9°C° 0.1 mm 3 mps 703 mmHg 81%
    18:00 +8°C° 0.1 mm 2 mps 704 mmHg 85%
    19:00 +7°C° 0.1 mm 2 mps 704 mmHg 89%
    20:00 +7°C° 0 mm 2 mps 705 mmHg 87%
    21:00 +6°C° 0 mm 2 mps 705 mmHg 86%
    22:00 +6°C° 0 mm 2 mps 706 mmHg 85%
    23:00 +5°C° 0 mm 2 mps 706 mmHg 85%

    Tomorrow, 27 April, Thursday

    Time Temperature Precipitation Wind Pressure Humidity
    00:00 +4°C° 0 mm 2 mps 706 mmHg 85%
    01:00 +4°C° 0 mm 2 mps 706 mmHg 86%
    02:00 +3°C° 0 mm 2 mps 706 mmHg 86%
    03:00 +3°C° 0 mm 2 mps 706 mmHg 87%
    04:00 +2°C° 0 mm 2 mps 706 mmHg 87%
    05:00 +2°C° 0 mm 2 mps 707 mmHg 86%
    06:00 +3°C° 0 mm 2 mps 707 mmHg 86%
    07:00 +3°C° 0 mm 2 mps 707 mmHg 86%
    08:00 +4°C° 0 mm 3 mps 708 mmHg 76%
    09:00 +7°C° 0 mm 3 mps 708 mmHg 67%
    10:00 +8°C° 0 mm 4 mps 709 mmHg 58%
    11:00 +11°C° 0 mm 4 mps 709 mmHg 52%
    12:00 +12°C° 0 mm 3 mps 709 mmHg 47%
    13:00 +14°C° 0 mm 3 mps 709 mmHg 41%
    14:00 +13°C° 0 mm 3 mps 709 mmHg 46%
    15:00 +12°C° 0 mm 3 mps 709 mmHg 51%
    16:00 +11°C° 0 mm 3 mps 709 mmHg 56%
    17:00 +10°C° 0 mm 2 mps 709 mmHg 61%
    18:00 +8°C° 0 mm 2 mps 710 mmHg 67%
    19:00 +7°C° 0 mm 2 mps 710 mmHg 73%
    20:00 +6°C° 0 mm 2 mps 711 mmHg 75%
    21:00 +5°C° 0 mm 2 mps 711 mmHg 78%
    22:00 +5°C° 0 mm 2 mps 711 mmHg 81%
    23:00 +4°C° 0 mm 2 mps 712 mmHg 81%

    Day after tomorrow, 28 April, Friday

    Time Temperature Precipitation Wind Pressure Humidity
    00:00 +4°C° 0 mm 2 mps 712 mmHg 82%
    01:00 +4°C° 0 mm 1 mps 712 mmHg 83%
    02:00 +4°C° 0 mm 1 mps 712 mmHg 84%
    03:00 +4°C° 0 mm 1 mps 712 mmHg 84%
    04:00 +4°C° 0 mm 1 mps 712 mmHg 85%
    05:00 +4°C° 0 mm 1 mps 712 mmHg 85%
    06:00 +4°C° 0 mm 1 mps 712 mmHg 85%
    07:00 +4°C° 0 mm 1 mps 713 mmHg 85%
    08:00 +7°C° 0 mm 1 mps 713 mmHg 73%
    09:00 +10°C° 0 mm 1 mps 714 mmHg 60%
    10:00 +14°C° 0 mm 1 mps 714 mmHg 48%
    11:00 +15°C° 0 mm 1 mps 714 mmHg 44%
    12:00 +18°C° 0 mm 1 mps 714 mmHg 41%
    13:00 +19°C° 0 mm 1 mps 713 mmHg 37%
    14:00 +19°C° 0 mm 1 mps 713 mmHg 39%
    15:00 +18°C° 0 mm 1 mps 713 mmHg 42%
    16:00 +18°C° 0 mm 1 mps 713 mmHg 44%
    17:00 +14°C° 0 mm 1 mps 713 mmHg 56%
    18:00 +11°C° 0 mm 1 mps 713 mmHg 69%
    19:00 +9°C° 0 mm 1 mps 712 mmHg 82%
    20:00 +8°C° 0 mm 1 mps 713 mmHg 85%
    21:00 +8°C° 0 mm 1 mps 713 mmHg 88%
    22:00 +7°C° 0 mm 1 mps 713 mmHg 91%
    23:00 +7°C° 0 mm 1 mps 713 mmHg 92%

    29 April, Saturday

    Time Temperature Precipitation Wind Pressure Humidity
    00:00 +7°C° 0 mm 1 mps 713 mmHg 93%
    01:00 +7°C° 0 mm 1 mps 712 mmHg 94%
    02:00 +6°C° 0 mm 1 mps 712 mmHg 94%
    03:00 +6°C° 0 mm 1 mps 712 mmHg 94%
    04:00 +6°C° 0 mm 1 mps 712 mmHg 95%
    05:00 +6°C° 0 mm 1 mps 712 mmHg 95%
    06:00 +6°C° 0 mm 1 mps 712 mmHg 95%
    07:00 +6°C° 0 mm 1 mps 712 mmHg 95%
    08:00 +9°C° 0 mm 1 mps 713 mmHg 82%
    09:00 +12°C° 0 mm 1 mps 713 mmHg 69%
    10:00 +15°C° 0 mm 1 mps 714 mmHg 56%
    11:00 +18°C° 0 mm 1 mps 714 mmHg 52%
    12:00 +19°C° 0 mm 1 mps 713 mmHg 47%
    13:00 +21°C° 0 mm 1 mps 713 mmHg 43%
    14:00 +20°C° 0 mm 1 mps 713 mmHg 46%
    15:00 +20°C° 0 mm 1 mps 713 mmHg 49%
    16:00 +19°C° 0 mm 1 mps 712 mmHg 51%
    17:00 +16°C° 0 mm 1 mps 713 mmHg 62%
    18:00 +14°C° 0 mm 1 mps 713 mmHg 73%
    19:00 +11°C° 0 mm 1 mps 713 mmHg 83%
    20:00 +11°C° 0 mm 1 mps 713 mmHg 86%
    21:00 +10°C° 0 mm 1 mps 713 mmHg 88%
    22:00 +10°C° 0 mm 1 mps 713 mmHg 90%
    23:00 +9°C° 0 mm 1 mps 713 mmHg 91%

    30 April, Sunday

    Time Temperature Precipitation Wind Pressure Humidity
    00:00 +9°C° 0 mm 1 mps 713 mmHg 92%
    01:00 +9°C° 0 mm 1 mps 713 mmHg 93%
    02:00 +8°C° 0 mm 1 mps 713 mmHg 94%
    03:00 +8°C° 0 mm 1 mps 713 mmHg 95%
    04:00 +7°C° 0 mm 1 mps 713 mmHg 96%
    05:00 +7°C° 0 mm 1 mps 713 mmHg 96%
    06:00 +7°C° 0 mm 1 mps 713 mmHg 96%
    07:00 +7°C° 0 mm 1 mps 713 mmHg 95%
    08:00 +10°C° 0 mm 1 mps 714 mmHg 80%
    09:00 +13°C° 0 mm 1 mps 714 mmHg 66%
    10:00 +16°C° 0 mm 0 mps 714 mmHg 51%
    11:00 +19°C° 0 mm 1 mps 714 mmHg 47%
    12:00 +20°C° 0 mm 1 mps 713 mmHg 44%
    13:00 +21°C° 0 mm 1 mps 713 mmHg 40%
    14:00 +21°C° 0 mm 1 mps 713 mmHg 42%
    15:00 +20°C° 0 mm 1 mps 712 mmHg 44%
    16:00 +20°C° 0 mm 1 mps 712 mmHg 45%
    17:00 +16°C° 0 mm 1 mps 711 mmHg 59%
    18:00 +13°C° 0 mm 1 mps 711 mmHg 73%
    19:00 +10°C° 0 mm 1 mps 711 mmHg 87%
    20:00 +9°C° 0 mm 1 mps 711 mmHg 90%
    21:00 +9°C° 0 mm 1 mps 710 mmHg 93%
    22:00 +8°C° 0 mm 1 mps 710 mmHg 96%
    23:00 +8°C° 0 mm 1 mps 710 mmHg 96%

    1 May, Monday

    Time Temperature Precipitation Wind Pressure Humidity
    00:00 +7°C° 0 mm 1 mps 709 mmHg 96%
    01:00 +7°C° 0 mm 1 mps 709 mmHg 97%
    02:00 +7°C° 0 mm 1 mps 709 mmHg 96%
    03:00 +7°C° 0 mm 1 mps 708 mmHg 96%
    04:00 +7°C° 0 mm 1 mps 708 mmHg 95%
    05:00 +7°C° 0 mm 1 mps 708 mmHg 95%
    06:00 +7°C° 0 mm 1 mps 708 mmHg 95%
    07:00 +7°C° 0 mm 1 mps 708 mmHg 94%
    08:00 +9°C° 0 mm 2 mps 708 mmHg 83%
    09:00 +12°C° 0 mm 3 mps 708 mmHg 72%
    10:00 +16°C° 0 mm 3 mps 708 mmHg 60%
    11:00 +17°C° 0 mm 4 mps 708 mmHg 59%
    12:00 +17°C° 0 mm 4 mps 707 mmHg 57%
    13:00 +18°C° 0 mm 4 mps 706 mmHg 56%
    14:00 +18°C° 0 mm 4 mps 706 mmHg 57%
    15:00 +17°C° 0 mm 3 mps 706 mmHg 59%
    16:00 +17°C° 0 mm 3 mps 706 mmHg 61%
    17:00 +14°C° 0 mm 3 mps 706 mmHg 69%
    18:00 +14°C° 0 mm 2 mps 706 mmHg 77%
    19:00 +12°C° 0 mm 1 mps 706 mmHg 86%
    20:00 +11°C° 0 mm 1 mps 706 mmHg 87%
    21:00 +11°C° 0 mm 1 mps 706 mmHg 89%
    22:00 +10°C° 0 mm 1 mps 705 mmHg 90%
    23:00 +9°C° 0 mm 2 mps 705 mmHg 90%
    Show more